{"data":{"norad_id":66070,"epoch":"2026-05-25T00:28:51.673728Z","epoch_age_seconds":69212,"freshness":"FRESH","line1":"1 66070U 25235N   26145.02004252  .00035382  00000+0  11989-2 0  9999","line2":"2 66070  53.1577 251.0274 0002682  80.7246 279.4058 15.30257062 34604","mean_motion":15.30257062,"eccentricity":0.0002682,"inclination_deg":53.1577,"raan_deg":251.0274,"arg_perigee_deg":80.7246,"mean_anomaly_deg":279.4058,"bstar":0.0011989,"rev_number":3460,"period_min":94.101836597177,"perigee_km":473.20667453581,"apogee_km":476.88272119855,"semimajor_km":6853.1816978672,"source":"CELESTRAK","updated_at":"2026-05-25T13:38:21.022632Z"}}